Regional Weather Roundup
Issued by NWS

Home | Current Version | Previous Version | Text Only | Print | Product List | Glossary Off
Versions: 1 2 3 4 5 6 7 8 9 10 11 12 13 14 15 16 17 18 19 20 21 22 23 24 25 26 27 28 29 30 31 32 33 34 35 36 37 38 39 40 41 42 43 44 45 46 47 48 49 50

000
ASUS45 KPSR 020910
RWRAZ

ARIZONA REGIONAL HOURLY WEATHER ROUNDUP
NATIONAL WEATHER SERVICE PHOENIX AZ
200 AM MST MON MAR 02 2015

NOTE: FAIR INDICATES FEW OR NO CLOUDS BELOW 12,000 FEET WITH NO
SIGNIFICANT WEATHER AND/OR OBSTRUCTIONS TO VISIBILITY.

AZZ001>003-036-021000-
NORTHWEST ARIZONA

CITY           SKY/WX    TMP DP  RH WIND       PRES   REMARKS
BULLHEAD CITY  LGT RAIN  50  46  87 N8        29.93R
KINGMAN        LGT RAIN  41  40  96 NE5       29.87F
$$

AZZ004>008-015-016-018-021000-
NORTH CENTRAL ARIZONA

CITY           SKY/WX    TMP DP  RH WIND       PRES   REMARKS
GRAND CANYON   FLURRIES  37  36  96 S10       29.94S WCI  30
PRESCOTT       MOCLDY    47  37  68 S16G30    29.93F
FLAGSTAFF      LGT RAIN  38  36  92 S20G31    29.97S WCI  28
PAGE           LGT RAIN  37  34  89 CALM      29.94F
$$

AZZ009>014-017-021000-
NORTHEAST ARIZONA

CITY           SKY/WX    TMP DP  RH WIND       PRES   REMARKS
WINSLOW        PTCLDY    38  36  92 SE7       29.97S WCI  33
SAINT JOHNS    MOCLDY    36  28  73 CALM      30.02F
WINDOW ROCK    CLEAR     35  32  88 E3        30.05F
$$

AZZ023-021000-
GREATER PHOENIX AREA

CITY           SKY/WX    TMP DP  RH WIND       PRES   REMARKS
PHOENIX        CLOUDY    65  48  54 S9        29.91F
BUCKEYE        CLOUDY    59  50  72 SE6       29.91F
DEER VALLEY    CLOUDY    61  50  67 CALM      29.92F
SCOTTSDALE     CLOUDY    63  48  58 E6        29.93F
MESA-GATEWAY   CLOUDY    61  50  67 E5        29.95F
$$

AZZ027-028-021000-
SOUTHWEST MARICOPA COUNTY AND PINAL COUNTY

CITY           SKY/WX    TMP DP  RH WIND       PRES   REMARKS
CASA GRANDE    CLOUDY    59  48  67 CALM      29.93F
GILA BEND      FAIR      64  47  54 SW10      29.90F
$$

AZZ503-504-507>509-021000-
SOUTHEAST ARIZONA

CITY           SKY/WX    TMP DP  RH WIND       PRES   REMARKS
TUCSON         MOCLDY    62  44  51 S3        29.98F
DAVIS-MONTHAN  MOCLDY    59  42  54 S2        29.96F
NOGALES        MOCLDY    57  41  55 S21       30.00F
SIERRA VISTA   MOCLDY    59  21  23 S20G31    29.99F
DOUGLAS        CLOUDY    60  35  39 S21G30    30.02F
SAFFORD        CLOUDY    61  34  36 SE9       29.97F
$$

AZZ020-021-025-026-031-021000-
SOUTHWEST ARIZONA

CITY           SKY/WX    TMP DP  RH WIND       PRES   REMARKS
YUMA           LGT RAIN  53  51  93 NE3       29.94F
$$

CAZ031-033-041-043-047-048-061-021000-
SOUTHERN CALIFORNIA

CITY           SKY/WX    TMP DP  RH WIND       PRES   REMARKS
DOWNTOWN L.A.  LGT RAIN  50  47  89 VRB6      29.93F
L.A. AIRPORT   MOCLDY    50  46  86 E8        29.93F
SAN DIEGO      LGT RAIN  54  48  80 SE8       29.96F
BURBANK        LGT RAIN  49  46  90 NE3       29.92F
ONTARIO        MOCLDY    49  41  74 CALM      29.92F
RIVERSIDE      CLOUDY    50  43  77 CALM      29.92F
PALM SPRINGS   CLOUDY    52  48  86 CALM      29.95S
EL CENTRO NAS  CLOUDY    52  50  93 S6        29.93F
IMPERIAL       LGT RAIN  52  50  93 S3        29.92F
BLYTHE         LGT RAIN  51  51 100 CALM      29.93F
NEEDLES        LGT RAIN  51  46  83 SW6       29.93R
$$

NVZ020-UTZ003-021000-
SOUTHERN NEVADA-UTAH

CITY           SKY/WX    TMP DP  RH WIND       PRES   REMARKS
LAS VEGAS      LGT RAIN  47  40  76 S8        29.86F
SALT LAKE CITY CLOUDY    40  30  67 NW3       29.93R
$$

NMZ009-TXZ055-021000-
NEW MEXICO-WEST TEXAS

CITY           SKY/WX    TMP DP  RH WIND       PRES   REMARKS
ALBUQUERQUE    CLOUDY    38  31  76 N14       30.10S WCI  30
EL PASO        CLOUDY    55  32  41 NE5       30.08S
$$


........................KEY........................
SKY/WX - SKY CONDITION/WEATHER
TMP    - TEMPERATURE IN FAHRENHEIT
DP     - DEW POINT IN FAHRENHEIT
RH     - RELATIVE HUMIDITY IN PERCENT
WIND   - DIRECTION AND SPEED IN MILES PER HOUR (MPH)
VRB    - VARIABLE WIND DIRECTION
PRES   - MEAN SEA LEVEL PRESSURE IN INCHES OF MERCURY
         F - FALLING PRESSURE   R - RISING PRESSURE
         S - STEADY PRESSURE
VSB    - VISIBILITY IN MILES
HX     - HEAT INDEX IN FAHRENHEIT
WCI    - WIND CHILL INDEX IN FAHRENHEIT
TC     - TEMPERATURE IN CELSIUS WHICH IS ALSO KNOWN AS
         TEMPERATURE IN CENTIGRADE
AFB    - AIR FORCE BASE
         LUKE AFB IS LUKE AIR FORCE BASE
         DAVIS-MONTHAN IS DAVIS-MONTHAN AIR FORCE BASE
NAS    - NAVAL AIR STATION
         EL CENTRO NAS IS EL CENTRO NAVAL AIR STATION
N/A    - NOT AVAILABLE



USA.gov is the U.S. government's official web portal to all federal, state and local government web resources and services.